Regional Weather Roundup
Issued by NWS

Home | Current Version | Previous Version | Text Only | Print | Product List | Glossary On
Versions: 1 2 3 4 5 6 7 8 9 10 11 12 13 14 15 16 17 18 19 20 21 22 23 24 25 26 27 28 29 30 31 32 33 34 35 36 37 38 39 40 41 42 43 44 45 46 47 48 49 50
000
ASUS43 KLMK 010610
RWRKY
KENTUCKY REGIONAL WEATHER ROUNDUP
NATIONAL WEATHER SERVICE LOUISVILLE KY
200 AM EDT SAT AUG 01 2015

NOTE "FAIR" INDICATES FEW OR NO CLOUDS BELOW 12,000 FEET
WITH NO SIGNIFICANT WEATHER AND/OR OBSTRUCTIONS TO VISIBILITY.

KYZ001>023-026-027-061>063-070>075-010700-
WESTERN AND SOUTH CENTRAL KENTUCKY

CITY           SKY/WX    TMP DP  RH WIND       PRES   REMARKS
PADUCAH        CLEAR     70  67  90 SW5       30.04F
HENDERSON      CLEAR     72  66  83 SW3       30.03R
OWENSBORO      CLEAR     74  70  87 CALM      30.03F
HOPKINSVILLE   CLEAR     72  69  90 SW2       30.04F
BOWLING GREEN  CLEAR     70  65  84 CALM      30.05S
GLASGOW        CLEAR    N/A N/A N/A CALM      30.04F
$$

KYZ024-025-028>034-038-045-046-053-010700-
NORTH CENTRAL KENTUCKY

CITY           SKY/WX    TMP DP  RH WIND       PRES   REMARKS
LOUISVILLE/SDF PTCLDY    75  64  68 NW3       30.01S
LOUISVILLE/LOU CLEAR     74  63  68 CALM      30.02S
FORT KNOX      CLEAR     68  64  86 CALM      30.02S
$$

KYZ035>037-039>044-047>052-055>060-089>105-010700-
NORTHEAST KENTUCKY

CITY           SKY/WX    TMP DP  RH WIND       PRES   REMARKS
LEXINGTON      CLEAR     69  60  73 W5        30.03S
COVINGTON      CLEAR     69  61  75 W3        30.00S
FRANKFORT      CLEAR     70  61  73 W3        30.02R
$$

KYZ054-064>069-076>088-106>120-010700-
SOUTHEAST KENTUCKY

CITY           SKY/WX    TMP DP  RH WIND       PRES   REMARKS
JACKSON        CLEAR     67  62  84 CALM      30.04S
LONDON         CLEAR     65  60  84 CALM      30.06R
SOMERSET       CLEAR     63  63 100 CALM      30.06S
MIDDLESBORO    CLEAR     62  61  96 CALM      30.08S
MONTICELLO     CLEAR     63  63 100 CALM      30.09R
$$



USA.gov is the U.S. government's official web portal to all federal, state and local government web resources and services.